Regional Weather Roundup
Issued by NWS

Home | Current Version | Previous Version | Graphics & Text | Print | Product List | Glossary On
Versions: 1 2 3 4 5 6 7 8 9 10 11 12 13 14 15 16 17 18 19 20 21 22 23 24 25 26 27 28
000
ASUS45 KSLC 291410
RWRUT

UTAH REGIONAL WEATHER ROUNDUP
NATIONAL WEATHER SERVICE SALT LAKE CITY UT
800 AM MDT FRI APR 29 2016

UTZ001>011-023>025-291500-

NORTHERN UTAH

CITY           SKY/WX    TMP DP  RH WIND       PRES   REMARKS
BRIGHAM CITY   CLOUDY    46  28  48 SE9       29.88S
HILL AFB       CLOUDY    42  31  67 E13       29.87R
LOGAN          CLOUDY    45  30  55 SE9       29.88S
OGDEN          CLOUDY    45  31  58 W10       29.86S
PROVO AIRPORT  PTSUNNY   43  37  81 CALM      29.88R
SALT LAKE CITY PTSUNNY   47  32  56 CALM      29.86S
VERNAL         CLOUDY    39  33  79 NE9       29.86R WCI  33
WENDOVER       PTSUNNY   46  30  53 W10       29.90R
HEBER CITY     MIX PCPN  34  34 100 SE5       29.88S WCI  30

$$

UTZ012>022-026-027-291500-

SOUTHERN/CENTRAL UTAH

CITY           SKY/WX    TMP DP  RH WIND       PRES   REMARKS
BLANDING       CLOUDY    40  34  79 NW3       29.93R
BRYCE CANYON   CLOUDY    36  32  85 W13       29.90R WCI  27
CEDAR CITY     CLOUDY    41  39  93 CALM      29.90R
DELTA          CLOUDY    41  41 100 S6        29.90R
MILFORD        CLOUDY    42  40  92 MISG      29.90R
MOAB/CYNLANDS  PTSUNNY   43  39  86 NW3       29.84R
PRICE          CLOUDY    40  35  83 CALM      29.84S
ST GEORGE      PTSUNNY   48  43  81 N6        29.91R

$$

REGIONAL REPORTS     COLORADO/ARIZONA

CITY           SKY/WX    TMP DP  RH WIND       PRES   REMARKS
CRAIG, CO      CLOUDY    37  32  82 CALM      29.86S
GRAND JUNCTION MOSUNNY   41  39  93 SW3       29.84R
RIFLE          CLOUDY    42  38  85 W8        29.83R
MONTROSE       CLOUDY    41  36  82 N3        29.86R
CORTEZ         CLOUDY    35  30  82 CALM      29.85S
PAGE, AZ       CLOUDY    47  43  86 W3        29.86R
GRAND CANYON   LGT RAIN  38  36  92 VRB5      29.92R WCI  34
KINGMAN        SUNNY     48  44  86 SE6       29.90S
FLAGSTAFF      CLOUDY    37  35  92 W10       29.93R WCI  30

$$

REGIONAL REPORTS    NEVADA/IDAHO/WYOMING

CITY           SKY/WX    TMP DP  RH WIND       PRES   REMARKS
LAS VEGAS, NV  MOSUNNY   58  41  53 VRB3      29.85R
ELY            MOSUNNY   34  32  92 S5        29.96R WCI  30
ELKO           CLOUDY    42  36  79 CALM      29.95R
POCATELLO, ID  CLOUDY    42  35  76 CALM      29.89R
BURLEY         CLOUDY    43  40  89 W15       29.88R
EVANSTON, WY   CLOUDY    31  27  85 NE8       29.90S WCI  23
ROCK SPRINGS   LGT SNOW  30  26  85 NE16      29.91S FOG     WCI  19

$$




USA.gov is the U.S. government's official web portal to all federal, state and local government web resources and services.